Regional Weather Roundup
Issued by NWS Goodland, KS

Home | Current Version | Previous Version | Graphics & Text | Print | Product List | Glossary On
Versions: 1 2 3 4 5 6 7 8 9 10 11 12 13 14 15 16 17 18 19 20 21 22 23 24 25 26 27 28 29 30 31 32 33 34 35 36 37 38 39 40 41 42 43 44 45 46 47 48 49 50
000
ASUS43 KGLD 012108
RWRGLD

GOODLAND FORECAST AREA HOURLY WEATHER ROUNDUP
NATIONAL WEATHER SERVICE GOODLAND KS
300 PM MDT WED APR 01 2015

...OFFICIAL OBSERVATIONS...

CITY           SKY/WX    TMP DP  RH WIND       PRES   REMARKS
GOODLAND KS    MOSUNNY   82  22  11 VRB3      29.60F
HILL CITY KS   PTSUNNY   87  42  20 S17G26    29.55F
IMPERIAL NEB   MOSUNNY   80  26  13 N16       29.62F
MCCOOK NEB     PTSUNNY   85  29  13 NW7       29.56F
AKRON CO       MOSUNNY   75  21  13 VRB5      29.68F
BURLINGTON CO  SUNNY     79  21  11 NE6       29.65F
LIMON CO       PTSUNNY   69  19  15 W10       29.71S
$$

...UNOFFICIAL OBSERVATIONS...

CITY           SKY/WX    TMP DP  RH WIND       PRES   REMARKS
COLBY KS       MOSUNNY   82  39  21 N9        29.59S
GOVE KS          N/A     85  32  15 MISG        N/A
LENORA KS        N/A     85  32  15 MISG        N/A
NORTON KS      SUNNY     88  27  11 S15G21    29.54
SHARON SPRINGS   N/A     86  23  10 N12G22      N/A
TRIBUNE KS     PTSUNNY   86  43  22 W8G20     29.63F
KIT CARSON CO    N/A     80  28  15 MISG        N/A
YUMA CO          N/A     76  24  14 W7G16       N/A
$$



USA.gov is the U.S. government's official web portal to all federal, state and local government web resources and services.